Location: *
(58.7167°N, 26.1833°E)
Time: 19:17:55
(UTC+00:00)

Mayak - Pass Details

Date: 25 August 2019
Orbit: 581 x 602 km, 97.6° (Epoch: 18 October)

Event Time Altitude Azimuth Distance (km) Brightness Sun altitude
Rises 19:48:51 0° 24° (NNE) 2,848 2.7 -14.4°
Reaches altitude 10° 19:51:39 10° 43° (NE) 1,936 1.5 -14.6°
Maximum altitude 19:54:32 18° 87° (E) 1,481 0.5 -14.9°
Enters shadow 19:55:17 17° 101° (E) 1,513 0.4 -14.9°
